400  
ASUS41 KALY 240310  
RWRALY  
 
NEW YORK STATE HOURLY WEATHER ROUNDUP  
NATIONAL WEATHER SERVICE ALBANY NY  
1000 PM EST TUE JAN 23 2018  
 
NOTE: "FAIR" INDICATES FEW OR NO CLOUDS BELOW 12,000 FEET WITH NO  
SIGNIFICANT WEATHER AND/OR NO S TO VISIBILITY
.  
 
NYZ032-033-038>043-046>054-057>066-NYZ062>081-082-084-240400-  
EAST  
 
 
CITY SKY/WX TMP DP RH WIND PRES REMARKS
 
ALBANY CLOUDY 40 33 76 W8 29.64R WCI 34  
GLENS FALLS CLOUDY 36 32 85 S7 29.59R WCI 30  
POUGHKEEPSIE FAIR 42 30 62 W9 29.67R  
NEWBURGH CLEAR 39 34 81 W9 29.68R WCI 33  
MONTGOMERY FAIR 41 30 65 W9 29.66R  
WHITE PLAINS FAIR 43 28 55 W9 29.67R  
ISLIP FAIR 47 31 53 W14G23 29.68R  
NEW YORK CITY FAIR 47 28 47 W14G26 29.71R  
CENTRAL PARK FAIR 46 28 49 W8G18 29.73R  

 
 
NYZ005>009-017-018-044>046-055-056-240400-  
CENTRAL  
 
 
CITY SKY/WX TMP DP RH WIND PRES REMARKS
 
FULTON LGT RAIN 38 31 76 W22G32 29.62R WCI 27  
SYRACUSE LGT RAIN 37 34 89 SW18G26 29.63S WCI 27  
ROME LGT RAIN 37 33 85 W10 29.63S WCI 30  
ELMIRA CLOUDY 40 30 67 W18G29 29.67R WCI 31  
BINGHAMTON CLOUDY 36 28 73 W20 29.63S WCI 25  
MONTICELLO MOCLDY 36 29 75 W9 29.67R WCI 29  

 
 
NYZ026>034-041>043-087-240400-  
NORTH  
 
 
CITY SKY/WX TMP DP RH WIND PRES REMARKS
 
WATERTOWN LGT RAIN 35 34 96 SW21G37 29.56R FOG WCI 24  
FORT DRUM NOT AVBL  
OGDENSBURG LGT RAIN 36 34 93 SW14G21 29.50S WCI 27  
MASSENA LGT RAIN 37 35 92 SW15G24 29.49S WCI 28  
SARANAC LAKE LGT SNOW 33 32 96 SW9G18 29.46F FOG WCI 25  
PLATTSBURGH CLOUDY 41 31 67 VRB6 29.49R  

 
 
NYZ001>004-010>016-019>021-085-240400-  
WEST  
 
 
CITY SKY/WX TMP DP RH WIND PRES REMARKS
 
NIAGARA FALLS FLURRIES 31 22 69 W26G39 29.75R WCI 17  
BUFFALO CLOUDY 30 26 85 W25G33 29.75R WCI 16  
DUNKIRK LGT SNOW 29 27 92 W17G25 29.83R FOG WCI 17  
JAMESTOWN LGT SNOW 28 26 92 W16G25 29.78R FOG WCI 16  
WELLSVILLE LGT SNOW 32 29 88 W21G30 29.69R VSB 1 WCI 20  
ROCHESTER LGT SNOW 35 33 92 W23G36 29.68R FOG WCI 23  
PENN YAN CLOUDY N/A N/A N/A SW18G35 29.67R  

 
 
KEY  
WCI = WIND CHILL INDEX  
VSB = VISIBILITY  
HX = HEAT INDEX  

 
 
 
CLICK HERE TO GO TO PREVIOUS BULLETINS.

The Nexlab NY Page
The Nexlab VT Page
The Nexlab MA Page
The Nexlab CT Page Main Text Page